Time,TemperatureF,DewpointF,PressureIn,WindDirection,WindDirectionDegrees,WindSpeedMPH,WindSpeedGustMPH,Humidity,HourlyPrecipIn,Conditions,Clouds,dailyrainin,SoftwareType,DateUTC
2013-01-06 13:53:00,53.0,43.0,30.09,West,273,11.0,11.0,70,0.00,,,0.04,,2013-01-06 21:53:00,
2013-01-06 14:02:00,53.0,43.0,30.09,West,273,11.0,11.0,70,0.00,,,0.04,,2013-01-06 22:02:00,
2013-01-06 14:12:00,53.0,43.0,30.09,West,273,11.0,11.0,70,0.00,,,0.04,,2013-01-06 22:12:00,
2013-01-06 14:22:00,53.0,43.0,30.09,West,273,11.0,11.0,70,0.00,,,0.04,,2013-01-06 22:22:00,
2013-01-06 14:32:00,53.0,43.0,30.09,West,273,11.0,11.0,70,0.00,,,0.04,,2013-01-06 22:32:00,
2013-01-06 14:52:00,52.0,47.0,30.07,WSW,250,5.0,5.0,82,0.00,,,0.04,,2013-01-06 22:52:00,
2013-01-06 15:02:00,52.0,47.0,30.07,WSW,250,5.0,5.0,82,0.00,,,0.04,,2013-01-06 23:02:00,
2013-01-06 15:12:00,52.0,47.0,30.07,WSW,250,5.0,5.0,82,0.00,,,0.04,,2013-01-06 23:12:00,
2013-01-06 15:22:00,54.0,46.0,30.06,WSW,254,0.0,0.0,75,0.00,,,0.04,,2013-01-06 23:22:00,
2013-01-06 15:32:00,54.0,46.0,30.06,WSW,254,0.0,0.0,75,0.00,,,0.04,,2013-01-06 23:32:00,
2013-01-06 15:43:00,54.0,46.0,30.06,WSW,254,0.0,0.0,75,0.00,,,0.04,,2013-01-06 23:43:00,
2013-01-06 15:53:00,54.0,46.0,30.06,WSW,254,0.0,0.0,75,0.00,,,0.04,,2013-01-06 23:53:00,
2013-01-06 16:02:00,54.0,46.0,30.06,WSW,254,0.0,0.0,75,0.00,,,0.04,,2013-01-07 00:02:00,
2013-01-06 16:23:00,54.0,44.0,30.05,NW,305,5.0,5.0,69,0.00,,,0.04,,2013-01-07 00:23:00,
2013-01-06 16:33:00,54.0,44.0,30.05,NW,305,5.0,5.0,69,0.00,,,0.04,,2013-01-07 00:33:00,
2013-01-06 16:43:00,54.0,44.0,30.05,NW,305,5.0,5.0,69,0.00,,,0.04,,2013-01-07 00:43:00,
2013-01-06 16:53:00,53.0,45.0,30.05,West,279,4.0,4.0,74,0.00,,,0.04,,2013-01-07 00:53:00,
2013-01-06 17:02:00,53.0,45.0,30.05,West,279,4.0,4.0,74,0.00,,,0.04,,2013-01-07 01:02:00,
2013-01-06 17:12:00,53.0,45.0,30.05,West,279,4.0,4.0,74,0.00,,,0.04,,2013-01-07 01:12:00,
2013-01-06 17:22:00,53.0,45.0,30.05,West,279,4.0,4.0,74,0.00,,,0.04,,2013-01-07 01:22:00,
2013-01-06 17:32:00,53.0,45.0,30.05,West,279,4.0,4.0,74,0.00,,,0.04,,2013-01-07 01:32:00,
2013-01-06 17:53:00,52.0,44.0,30.03,NW,313,0.0,0.0,75,0.00,,,0.04,,2013-01-07 01:53:00,
2013-01-06 18:02:00,52.0,44.0,30.03,NW,313,0.0,0.0,75,0.00,,,0.04,,2013-01-07 02:02:00,
2013-01-06 18:12:00,52.0,44.0,30.03,NW,313,0.0,0.0,75,0.00,,,0.04,,2013-01-07 02:12:00,
2013-01-06 18:22:00,52.0,44.0,30.03,NW,313,0.0,0.0,75,0.00,,,0.04,,2013-01-07 02:22:00,
2013-01-06 18:32:00,52.0,44.0,30.03,NW,313,0.0,0.0,75,0.00,,,0.04,,2013-01-07 02:32:00,
2013-01-06 19:53:00,48.0,42.0,30.04,South,188,0.0,0.0,81,0.00,,,0.04,,2013-01-07 03:53:00,
2013-01-06 20:02:00,48.0,42.0,30.04,South,188,0.0,0.0,81,0.00,,,0.04,,2013-01-07 04:02:00,
2013-01-06 20:12:00,48.0,42.0,30.04,South,188,0.0,0.0,81,0.00,,,0.04,,2013-01-07 04:12:00,
2013-01-06 20:22:00,47.0,42.0,30.04,South,188,3.0,3.0,82,0.00,,,0.04,,2013-01-07 04:22:00,
2013-01-06 20:32:00,47.0,42.0,30.04,South,188,3.0,3.0,82,0.00,,,0.04,,2013-01-07 04:32:00,
2013-01-06 20:42:00,47.0,42.0,30.04,South,188,3.0,3.0,82,0.00,,,0.04,,2013-01-07 04:42:00,
2013-01-06 20:52:00,46.0,41.0,30.04,South,188,2.0,2.0,83,0.00,,,0.04,,2013-01-07 04:52:00,
2013-01-06 21:02:00,46.0,41.0,30.04,South,188,2.0,2.0,83,0.00,,,0.04,,2013-01-07 05:02:00,
2013-01-06 21:12:00,46.0,41.0,30.04,South,188,2.0,2.0,83,0.00,,,0.04,,2013-01-07 05:12:00,
2013-01-06 21:22:00,46.0,41.0,30.04,South,188,2.0,2.0,83,0.00,,,0.04,,2013-01-07 05:22:00,
2013-01-06 21:32:00,46.0,41.0,30.04,South,188,2.0,2.0,83,0.00,,,0.04,,2013-01-07 05:32:00,
2013-01-06 21:53:00,45.0,40.0,30.05,NE,41,0.0,0.0,84,0.00,,,0.04,,2013-01-07 05:53:00,
2013-01-06 22:02:00,45.0,40.0,30.05,NE,41,0.0,0.0,84,0.00,,,0.04,,2013-01-07 06:02:00,
2013-01-06 22:12:00,45.0,40.0,30.05,NE,41,0.0,0.0,84,0.00,,,0.04,,2013-01-07 06:12:00,
2013-01-06 22:22:00,45.0,40.0,30.05,NE,41,0.0,0.0,84,0.00,,,0.04,,2013-01-07 06:22:00,
2013-01-06 22:32:00,45.0,40.0,30.05,NE,41,0.0,0.0,84,0.00,,,0.04,,2013-01-07 06:32:00,
2013-01-06 22:52:00,45.0,41.0,30.04,NE,36,4.0,4.0,85,0.00,,,0.04,,2013-01-07 06:52:00,
2013-01-06 23:02:00,45.0,41.0,30.04,NE,36,4.0,4.0,85,0.00,,,0.04,,2013-01-07 07:02:00,
2013-01-06 23:12:00,45.0,41.0,30.04,NE,36,4.0,4.0,85,0.00,,,0.04,,2013-01-07 07:12:00,
2013-01-06 23:22:00,44.0,40.0,30.05,NNE,21,5.0,5.0,86,0.00,,,0.04,,2013-01-07 07:22:00,
2013-01-06 23:32:00,44.0,40.0,30.05,NNE,21,5.0,5.0,86,0.00,,,0.04,,2013-01-07 07:32:00,
2013-01-06 23:42:00,44.0,40.0,30.05,NNE,21,5.0,5.0,86,0.00,,,0.04,,2013-01-07 07:42:00,
2013-01-06 23:52:00,44.0,40.0,30.05,NNE,21,5.0,5.0,86,0.00,,,0.04,,2013-01-07 07:52:00,